| time (UTC) | temp C | wind direction | speed KPH | gust KPH | rain 1hr cm | rain 24hr cm | rain mn cm | humidity % | barometer mb |
| 20260504205841 | 12 | 263 | 1.6 | 6.4 | 0.00 | 0.36 | 0.28 | 92 | 1021.7 |
| 20260504204714 | 12 | 263 | 0.0 | 3.2 | 0.00 | 0.36 | 0.25 | 92 | 1021.7 |
| 20260504204202 | 12 | 263 | 0.0 | 0.0 | 0.00 | 0.36 | 0.25 | 92 | 1021.6 |
| 20260504203645 | 12 | 263 | 0.0 | 0.0 | 0.00 | 0.36 | 0.25 | 92 | 1021.6 |
| 20260504203125 | 12 | 263 | 0.0 | 0.0 | 0.00 | 0.36 | 0.25 | 92 | 1021.6 |
| 20260504202622 | 12 | 263 | 0.0 | 0.0 | 0.00 | 0.36 | 0.25 | 92 | 1021.3 |
| 20260504200240 | 12 | 263 | 0.0 | 0.0 | 0.00 | 0.36 | 0.25 | 92 | 1021.2 |
| 20260504195732 | 12 | 263 | 0.0 | 0.0 | 0.00 | 0.36 | 0.25 | 92 | 1021.1 |
| 20260504194556 | 12 | 263 | 0.0 | 0.0 | 0.00 | 0.33 | 0.23 | 92 | 1021.1 |
| 20260504193424 | 12 | 263 | 0.0 | 0.0 | 0.00 | 0.33 | 0.23 | 92 | 1021.0 |
| 20260504192400 | 12 | 263 | 0.0 | 0.0 | 0.00 | 0.33 | 0.23 | 92 | 1020.9 |
| 20260504191859 | 12 | 263 | 0.0 | 0.0 | 0.00 | 0.33 | 0.23 | 92 | 1020.9 |
| 20260504190715 | 12 | 263 | 0.0 | 0.0 | 0.00 | 0.33 | 0.23 | 92 | 1020.7 |
| 20260504190210 | 12 | 263 | 0.0 | 0.0 | 0.00 | 0.33 | 0.23 | 92 | 1020.7 |
| 20260504185650 | 12 | 263 | 0.0 | 0.0 | 0.00 | 0.33 | 0.23 | 92 | 1020.6 |
| 20260504185144 | 12 | 263 | 0.0 | 0.0 | 0.00 | 0.33 | 0.23 | 92 | 1020.6 |
| 20260504184640 | 12 | 263 | 0.0 | 0.0 | 0.00 | 0.33 | 0.23 | 92 | 1020.6 |
| 20260504184149 | 12 | 263 | 0.0 | 0.0 | 0.00 | 0.33 | 0.23 | 92 | 1020.6 |
| 20260504183650 | 12 | 263 | 0.0 | 0.0 | 0.00 | 0.33 | 0.23 | 91 | 1020.6 |
| 20260504183134 | 12 | 263 | 0.0 | 0.0 | 0.00 | 0.33 | 0.23 | 91 | 1020.6 |
| 20260504182616 | 12 | 263 | 0.0 | 0.0 | 0.00 | 0.33 | 0.23 | 91 | 1020.6 |
| 20260504182102 | 12 | 263 | 0.0 | 0.0 | 0.00 | 0.33 | 0.23 | 91 | 1020.6 |
| 20260504181541 | 12 | 263 | 0.0 | 4.8 | 0.00 | 0.33 | 0.23 | 91 | 1020.6 |
| 20260504181043 | 12 | 263 | 1.6 | 4.8 | 0.00 | 0.33 | 0.23 | 91 | 1020.5 |
| 20260504180526 | 12 | 263 | 1.6 | 4.8 | 0.08 | 0.33 | 0.23 | 92 | 1020.5 |
| 20260504180026 | 12 | 263 | 0.0 | 4.8 | 0.10 | 0.33 | 0.23 | 92 | 1020.5 |
| 20260504175508 | 12 | 263 | 0.0 | 1.6 | 0.23 | 0.33 | 0.23 | 92 | 1020.6 |
| 20260504175004 | 12 | 263 | 0.0 | 3.2 | 0.28 | 0.30 | 0.20 | 92 | 1020.6 |
| 20260504173816 | 12 | 263 | 0.0 | 0.0 | 0.00 | 0.23 | 0.13 | 91 | 1020.6 |
| 20260504173303 | 12 | 263 | 0.0 | 0.0 | 0.00 | 0.23 | 0.13 | 91 | 1020.6 |
| 20260504172755 | 12 | 263 | 0.0 | 0.0 | 0.00 | 0.23 | 0.13 | 91 | 1020.6 |
| 20260504172259 | 12 | 263 | 0.0 | 3.2 | 0.00 | 0.23 | 0.13 | 91 | 1020.6 |
| 20260504171807 | 12 | 263 | 0.0 | 3.2 | 0.00 | 0.23 | 0.13 | 91 | 1020.6 |
| 20260504170639 | 12 | 263 | 0.0 | 0.0 | 0.00 | 0.23 | 0.13 | 91 | 1020.6 |
| 20260504170125 | 12 | 263 | 0.0 | 0.0 | 0.00 | 0.23 | 0.13 | 91 | 1020.6 |
| 20260504150650 | 12 | 263 | 0.0 | 1.6 | 0.00 | 0.15 | 0.00 | 90 | 1020.5 |
| 20260504150145 | 12 | 263 | 0.0 | 1.6 | 0.00 | 0.15 | 0.00 | 90 | 1020.5 |
| 20260504141006 | 12 | 263 | 0.0 | 3.2 | 0.00 | 0.38 | 0.38 | 89 | 1020.2 |
| 20260504130402 | 13 | 263 | 0.0 | 0.0 | 0.00 | 0.46 | 0.38 | 88 | 1020.1 |
| 20260504110304 | 14 | 263 | 0.0 | 0.0 | 0.00 | 0.46 | 0.36 | 84 | 1019.0 |
| 20260504100517 | 15 | 263 | 0.0 | 1.6 | 0.00 | 0.46 | 0.33 | 79 | 1018.3 |
| 20260504082002 | 16 | 263 | 9.7 | 22.5 | 0.00 | 0.56 | 0.33 | 70 | 1016.9 |
| 20260504080842 | 16 | 263 | 8.0 | 22.5 | 0.00 | 0.64 | 0.33 | 69 | 1016.6 |
| 20260504080332 | 16 | 263 | 8.0 | 22.5 | 0.00 | 0.64 | 0.33 | 69 | 1016.6 |
| 20260504050721 | 18 | 263 | 11.3 | 22.5 | 0.00 | 0.79 | 0.33 | 63 | 1014.8 |
| 20260504050222 | 18 | 263 | 11.3 | 29.0 | 0.00 | 0.79 | 0.33 | 62 | 1014.8 |
| 20260504045709 | 18 | 263 | 9.7 | 29.0 | 0.00 | 0.79 | 0.33 | 62 | 1014.8 |
| 20260504045215 | 18 | 263 | 12.9 | 29.0 | 0.00 | 0.79 | 0.33 | 64 | 1014.8 |
| 20260504044723 | 18 | 263 | 12.9 | 29.0 | 0.00 | 0.79 | 0.33 | 63 | 1014.8 |
| 20260504044219 | 18 | 263 | 11.3 | 24.1 | 0.00 | 0.79 | 0.33 | 64 | 1014.7 |
| 20260504043724 | 18 | 263 | 12.9 | 27.4 | 0.00 | 0.79 | 0.33 | 67 | 1014.7 |
| 20260504043226 | 18 | 263 | 12.9 | 27.4 | 0.00 | 0.79 | 0.33 | 66 | 1014.7 |
| 20260504042722 | 18 | 263 | 12.9 | 27.4 | 0.00 | 0.79 | 0.33 | 65 | 1014.6 |
| 20260504042213 | 18 | 263 | 12.9 | 27.4 | 0.00 | 0.79 | 0.33 | 64 | 1014.6 |
| 20260504041703 | 18 | 263 | 11.3 | 25.7 | 0.00 | 0.79 | 0.33 | 66 | 1014.6 |
| 20260504041200 | 18 | 263 | 12.9 | 25.7 | 0.00 | 0.79 | 0.33 | 66 | 1014.6 |
| 20260504040646 | 18 | 263 | 12.9 | 25.7 | 0.00 | 0.79 | 0.33 | 66 | 1014.6 |
| 20260504040141 | 18 | 263 | 12.9 | 25.7 | 0.00 | 0.79 | 0.33 | 65 | 1014.6 |
| 20260504035633 | 18 | 263 | 11.3 | 25.7 | 0.00 | 0.79 | 0.33 | 66 | 1014.7 |
| 20260504035124 | 18 | 263 | 11.3 | 25.7 | 0.00 | 0.79 | 0.33 | 66 | 1014.7 |
| 20260504034629 | 18 | 263 | 9.7 | 27.4 | 0.00 | 0.79 | 0.33 | 66 | 1014.7 |
| 20260504034138 | 18 | 263 | 9.7 | 27.4 | 0.00 | 0.79 | 0.33 | 65 | 1014.7 |
| 20260504033638 | 18 | 263 | 11.3 | 27.4 | 0.00 | 0.79 | 0.33 | 66 | 1014.7 |
| 20260504033131 | 18 | 263 | 11.3 | 27.4 | 0.00 | 0.79 | 0.33 | 67 | 1014.7 |
| 20260504032626 | 18 | 263 | 9.7 | 25.7 | 0.00 | 0.79 | 0.33 | 69 | 1014.8 |
| 20260504032133 | 17 | 263 | 11.3 | 25.7 | 0.00 | 0.79 | 0.33 | 69 | 1014.8 |
| 20260504031633 | 17 | 263 | 11.3 | 20.9 | 0.00 | 0.79 | 0.33 | 68 | 1014.8 |
| 20260504031124 | 17 | 263 | 9.7 | 24.1 | 0.00 | 0.79 | 0.33 | 67 | 1014.8 |
| 20260504030616 | 17 | 263 | 9.7 | 24.1 | 0.00 | 0.79 | 0.33 | 69 | 1014.8 |
| 20260504030124 | 17 | 263 | 12.9 | 29.0 | 0.00 | 0.79 | 0.33 | 69 | 1014.8 |
| 20260504025609 | 17 | 263 | 14.5 | 29.0 | 0.00 | 0.79 | 0.33 | 68 | 1014.8 |
| 20260504025109 | 17 | 263 | 12.9 | 29.0 | 0.00 | 0.79 | 0.33 | 68 | 1014.8 |
| 20260504024617 | 18 | 263 | 9.7 | 29.0 | 0.00 | 0.81 | 0.33 | 69 | 1014.8 |
| 20260504024104 | 17 | 263 | 11.3 | 25.7 | 0.00 | 0.81 | 0.33 | 68 | 1014.9 |
| 20260504023557 | 17 | 263 | 11.3 | 25.7 | 0.00 | 0.81 | 0.33 | 70 | 1014.9 |
| 20260504023052 | 17 | 263 | 9.7 | 33.8 | 0.00 | 0.81 | 0.33 | 69 | 1014.9 |
| 20260504022559 | 17 | 263 | 9.7 | 33.8 | 0.00 | 0.81 | 0.33 | 69 | 1014.9 |
| 20260504022107 | 17 | 263 | 11.3 | 33.8 | 0.00 | 0.81 | 0.33 | 69 | 1014.9 |
| 20260504021551 | 17 | 263 | 16.1 | 33.8 | 0.00 | 0.81 | 0.33 | 68 | 1014.9 |
| 20260504021035 | 17 | 263 | 14.5 | 30.6 | 0.00 | 0.81 | 0.33 | 69 | 1014.8 |
| 20260504020534 | 17 | 263 | 12.9 | 29.0 | 0.00 | 0.81 | 0.33 | 69 | 1014.8 |
| 20260504020043 | 17 | 263 | 12.9 | 29.0 | 0.00 | 0.79 | 0.30 | 69 | 1014.8 |
| 20260504015553 | 17 | 263 | 12.9 | 29.0 | 0.00 | 0.79 | 0.30 | 69 | 1014.8 |
| 20260504015042 | 17 | 263 | 12.9 | 29.0 | 0.00 | 0.79 | 0.30 | 69 | 1014.8 |
| 20260504014546 | 17 | 263 | 12.9 | 27.4 | 0.00 | 0.79 | 0.30 | 69 | 1014.8 |
| 20260504014035 | 17 | 263 | 12.9 | 27.4 | 0.00 | 0.79 | 0.30 | 69 | 1014.7 |
| 20260504013543 | 17 | 263 | 14.5 | 27.4 | 0.00 | 0.79 | 0.30 | 69 | 1014.7 |
| 20260504012414 | 17 | 263 | 11.3 | 29.0 | 0.00 | 0.79 | 0.30 | 70 | 1014.6 |
| 20260504011919 | 17 | 263 | 12.9 | 29.0 | 0.00 | 0.79 | 0.30 | 71 | 1014.6 |
| 20260504011420 | 17 | 263 | 12.9 | 29.0 | 0.00 | 0.79 | 0.30 | 70 | 1014.6 |
| 20260504010912 | 17 | 263 | 9.7 | 27.4 | 0.00 | 0.79 | 0.30 | 71 | 1014.5 |
| 20260504005753 | 17 | 263 | 11.3 | 29.0 | 0.00 | 0.79 | 0.30 | 71 | 1014.3 |
| 20260504005238 | 17 | 263 | 12.9 | 29.0 | 0.00 | 0.79 | 0.30 | 71 | 1014.3 |
| 20260504004734 | 17 | 263 | 12.9 | 27.4 | 0.00 | 0.79 | 0.30 | 72 | 1014.3 |
| 20260504004236 | 17 | 263 | 11.3 | 22.5 | 0.00 | 0.79 | 0.30 | 73 | 1014.1 |
| 20260504003048 | 16 | 263 | 11.3 | 20.9 | 0.00 | 0.79 | 0.30 | 75 | 1014.1 |
| 20260504002551 | 16 | 263 | 12.9 | 25.7 | 0.00 | 0.79 | 0.30 | 76 | 1013.9 |
| 20260504002039 | 16 | 263 | 11.3 | 25.7 | 0.00 | 0.79 | 0.30 | 78 | 1013.9 |
| 20260504001523 | 16 | 263 | 9.7 | 25.7 | 0.00 | 0.79 | 0.30 | 80 | 1013.9 |
| 20260504001021 | 16 | 263 | 8.0 | 25.7 | 0.00 | 0.79 | 0.30 | 82 | 1013.8 |
| 20260504000508 | 15 | 263 | 8.0 | 17.7 | 0.00 | 0.79 | 0.30 | 84 | 1013.8 |
| 20260504000016 | 15 | 263 | 8.0 | 24.1 | 0.00 | 0.79 | 0.30 | 84 | 1013.8 |
| 20260503234856 | 15 | 263 | 6.4 | 24.1 | 0.00 | 0.81 | 0.30 | 85 | 1013.8 |
| 20260503233728 | 15 | 263 | 4.8 | 12.9 | 0.00 | 0.81 | 0.30 | 85 | 1013.6 |
| 20260503233229 | 15 | 263 | 4.8 | 22.5 | 0.00 | 0.81 | 0.30 | 85 | 1013.6 |
| 20260503232723 | 15 | 263 | 8.0 | 22.5 | 0.00 | 0.81 | 0.30 | 84 | 1013.3 |
| 20260503232227 | 15 | 263 | 9.7 | 22.5 | 0.00 | 0.81 | 0.30 | 83 | 1013.3 |
| 20260503231713 | 15 | 263 | 6.4 | 22.5 | 0.00 | 0.81 | 0.30 | 83 | 1013.3 |
| 20260503231212 | 16 | 263 | 4.8 | 24.1 | 0.00 | 0.79 | 0.30 | 83 | 1013.1 |
| 20260503230711 | 16 | 263 | 6.4 | 24.1 | 0.00 | 0.79 | 0.28 | 82 | 1013.1 |
| 20260503230211 | 16 | 263 | 8.0 | 24.1 | 0.00 | 0.79 | 0.28 | 82 | 1013.1 |
| 20260503225657 | 16 | 263 | 9.7 | 24.1 | 0.00 | 0.79 | 0.28 | 82 | 1012.8 |
| 20260503225147 | 15 | 263 | 8.0 | 22.5 | 0.00 | 0.79 | 0.28 | 82 | 1012.8 |
| 20260503224635 | 15 | 263 | 8.0 | 22.5 | 0.00 | 0.79 | 0.28 | 83 | 1012.8 |
| 20260503224127 | 15 | 263 | 6.4 | 20.9 | 0.00 | 0.79 | 0.28 | 82 | 1012.7 |
| 20260503223628 | 15 | 263 | 6.4 | 20.9 | 0.00 | 0.79 | 0.28 | 82 | 1012.7 |
| 20260503223111 | 15 | 263 | 8.0 | 20.9 | 0.00 | 0.79 | 0.28 | 82 | 1012.7 |
| 20260503222607 | 15 | 263 | 6.4 | 19.3 | 0.00 | 0.79 | 0.28 | 82 | 1012.4 |
| 20260503222058 | 15 | 263 | 6.4 | 19.3 | 0.00 | 0.79 | 0.28 | 82 | 1012.4 |
| 20260503221539 | 15 | 263 | 6.4 | 19.3 | 0.00 | 0.79 | 0.28 | 82 | 1012.4 |
| 20260503213908 | 15 | 263 | 8.0 | 22.5 | 0.00 | 0.79 | 0.28 | 83 | 1011.8 |
| 20260503213415 | 15 | 263 | 8.0 | 20.9 | 0.00 | 0.79 | 0.28 | 83 | 1011.8 |
| 20260503212906 | 15 | 263 | 8.0 | 20.9 | 0.00 | 0.79 | 0.28 | 83 | 1011.7 |
| 20260503212347 | 15 | 263 | 8.0 | 27.4 | 0.00 | 0.79 | 0.28 | 83 | 1011.7 |
| 20260503211838 | 15 | 263 | 8.0 | 27.4 | 0.00 | 0.79 | 0.28 | 83 | 1011.7 |
| 20260503211336 | 15 | 263 | 9.7 | 27.4 | 0.00 | 0.79 | 0.28 | 82 | 1011.7 |
| 20260503210817 | 15 | 263 | 11.3 | 27.4 | 0.00 | 0.79 | 0.28 | 82 | 1011.7 |